User: anonymous
Location: Mactaquac Provincial Park
(45.9573°N, 66.8897°W)
Time: 14:31:58
(UTC-03:00)
Language:

Cosmos 1766 - Orbit

View from above orbital plane
View from above orbital plane
View from above satellite
View from above satellite

Ground track
Ground track

The orbit data is extracted from the following two-line orbital elements,

1 16881U 86055A   14244.14329085  .00001751  00000-0  11867-3 0  9445
2 16881 082.5095 299.2561 0010962 326.8125 033.2413 15.05842229527631
Epoch (UTC): 01 September 2014 03:26:20
Eccentricity: 0.0010962
inclination: 82.5095°
perigee height: 541 km
apogee height: 556 km
right ascension of ascending node: 299.2561°
argument of perigee: 326.8125°
revolutions per day: 15.05842229
mean anomaly at epoch: 33.2413°
orbit number at epoch: 52763

The dashed part of the orbit path shows where the satellite is in the earth's shadow,  

DLR